This is the latest recevied weather packets stored in our database for station/object KV9E. If no packets are shown the sender has not sent any weather packets the latest 10 day(s).
| Time | Temp. | Humidity | Pressure | Rain* | Wind** | Luminosity | Snow |
|---|---|---|---|---|---|---|---|
| 1787842520 | 21.67° C | 86% | 1016.4 hPa | 0 mm | - | 67 W/m² | - |
| 1787842219 | 21.67° C | 87% | 1016.5 hPa | 0 mm | - | 68 W/m² | - |
| 1787841913 | 21.67° C | 88% | 1016.2 hPa | 0 mm | - | 67 W/m² | - |
| 1787841610 | 21.67° C | 87% | 1016.5 hPa | 0 mm | - | 52 W/m² | - |
| 1787841308 | 21.67° C | 88% | 1016.5 hPa | 0 mm | - | 54 W/m² | - |
| 1787841003 | 21.67° C | 88% | 1016.5 hPa | 0 mm | - | 61 W/m² | - |
| 1787840699 | 21.67° C | 88% | 1016.4 hPa | 0 mm | - | 52 W/m² | - |
| 1787840394 | 21.67° C | 87% | 1016.4 hPa | 0 mm | - | 42 W/m² | - |
| 1787840089 | 21.67° C | 87% | 1016.7 hPa | 0 mm | - | 43 W/m² | - |
| 1787839784 | 21.11° C | 88% | 1016.6 hPa | 0 mm | - | 40 W/m² | - |
| 1787839483 | 21.11° C | 90% | 1016.7 hPa | 0 mm | - | 257 W/m² | - |
| 1787839183 | 21.67° C | 88% | 1016.2 hPa | 0 mm | - | 60 W/m² | - |
| 1787838883 | 22.22° C | 88% | 1016.4 hPa | 0 mm | - | 133 W/m² | - |
| 1787838582 | 21.67° C | 89% | 1016.2 hPa | 0 mm | - | 177 W/m² | - |
| 1787838282 | 21.11° C | 86% | 1016.4 hPa | 0 mm | - | 123 W/m² | - |
| 1787837980 | 20.56° C | 85% | 1016.8 hPa | 0 mm | - | 137 W/m² | - |
| 1787837674 | 21.11° C | 87% | 1016.4 hPa | 0 mm | - | 179 W/m² | - |
| 1787837369 | 20.56° C | 93% | 1016.5 hPa | 0 mm | - | 51 W/m² | - |
| 1787837065 | 20° C | 95% | 1016.4 hPa | 0 mm | - | 56 W/m² | - |
| 1787836763 | 19.44° C | 97% | 1016.4 hPa | 0 mm | - | 40 W/m² | - |
| 1787836459 | 19.44° C | 98% | 1016.4 hPa | 0 mm | - | 34 W/m² | - |
| 1787836148 | 18.89° C | 99% | 1016.5 hPa | 0 mm | - | 35 W/m² | - |
| 1787835844 | 18.89° C | 99% | 1016.5 hPa | 0 mm | - | 37 W/m² | - |
| 1787835543 | 18.89° C | 99% | 1016.6 hPa | 0 mm | - | 37 W/m² | - |
| 1787835239 | 18.33° C | 99% | 1016.6 hPa | 0 mm | - | 34 W/m² | - |
* Rain latest hour (hover to see other rain measurements)
** Current wind speed in m/s (hover to see current wind gust speed)